STARLINK-38086, 69998

Orbit data source: Space-Track

STARLINK-38086, 69998 is a payload satellite owned by SpaceX/Seattle (US) in SSO that was launched on Sat, 11 Jul 2026 UTC via an FALCON 9 launch vehicle from the Air Force Western Test Range (AFWTR). Payload-class satellites include a variety of spacecraft equipped with specific instruments for various scientific and technological missions. These include communications satellites like Starlink; space stations such as the ISS; scientific satellites like the Hubble; Earth observation satellites from companies like Planet Labs, Umbra, and HawkEye 360; GPS; miniature CubeSats for education and research; and military/defense satellites.

Not visible in the next 10 days
Identifier
69998, 2026-159Z
Orbit
SSO
Country
Flag of USUS
Related business
Manufacturer
SpaceX/Seattle
Mission
Operational spacecraft
Bus & Motor
STARLINK V2MO, Unknown motor
Mass
575 kg wet, ~530 kg dry
Launch date (UTC)
2026-07-11 (2 months ago)
Launch vehicle
FALCON 9
Launch site
Air Force Western Test Range (AFWTR)
Object type
Payload
Rocket body
Debris
Shape & HBR
BOX + PAN, 17.7 m
Radar Cross Section
Large (>1 m²)

Expand to show TLE details & history
Last TLE update: 11 hours ago

TLE from 11 hours ago
0 STARLINK-38086
1 69998U 26159Z   26255.28342469  .00101530  00000-0  67231-3 0  9994
2 69998  97.2893  97.0005 0001573  78.1088 282.0354 15.75230648 11175
Epoch: 2026-09-12T06:48Z
TLE epoch observation values (Epoch: 2026-09-12T06:48:07.893Z)
Latitude
0.00004°
Longitude
3.67296°
Altitude
346.923 km
Speed
7.701 km/s
True Right ascension
06h 28m 00s
True Declination
0° 00' 00"
Sunlit
Object was in daylight at epoch
Visualization orbit readout
Latitude
Unknown
Longitude
Unknown
Altitude
Unknown
Speed
Unknown
Apparent Right ascension
Unknown
Apparent Declination
Unknown
Sunlit
N/A
Visualization observer readout
Local Sidereal Time
09:53:06
Azimuth
Unknown
Elevation
Unknown
Doppler factor
Unknown
Orbital elements
Apogee altitude
341.919 km
Perigee altitude
339.806 km
Semi-major axis
6,718.999 km
Eccentricity
0.00016
Inclination
97.2893°
RAAN
97.0005°
Arg. of periapsis
78.1088°
True anomaly
282.01777°
Mean anomaly
282.0354°
Eccentric anomaly
282.02659°
Mean motion
3.94082 °/min
Orbital period
91.35 mins
BSTAR
0.00067231
Loading maneuver chart data...
Computing Atmospheric mass density...
Loading historical data...
Loading historical data...
Loading historical data...
Loading historical data...
Loading historical data...
Loading historical data...
Loading historical data...

Documentation

Showing up to 5 results
|